{"data":{"norad_id":58206,"intl_designator":"2023-170A","name":"STARLINK-30800","alt_names":[],"object_type":"PAYLOAD","status":"ACTIVE","operator":null,"country":"US","launch_date":"2023-11-03","launch_site_code":"AFETR","launch_vehicle":null,"mission":null,"orbit_class":"UNKNOWN","rcs_meters":null,"size_class":null,"mass_kg":null,"dimensions":null,"purposes":["comms"],"wikipedia_slug":null,"has_3d_model":false,"image_url":null,"decayed_at":null,"tle_current":{"epoch":"2026-09-19T03:48:37.296864Z","epoch_age_seconds":259569,"freshness":"STALE","line1":"1 58206U 23170A   26262.15876501 -.00000009  00000+0  91875-5 0  9999","line2":"2 58206  43.0014 181.9992 0001205 265.3260  94.7454 15.27575490159885","mean_motion":15.2757549,"eccentricity":0.0001205,"inclination_deg":43.0014,"raan_deg":181.9992,"arg_perigee_deg":265.326,"mean_anomaly_deg":94.7454,"bstar":9.1875e-6,"rev_number":15988,"period_min":94.267027025944,"perigee_km":482.23582608347,"apogee_km":483.88937518722,"semimajor_km":6861.1996006353,"source":"CELESTRAK","updated_at":"2026-09-21T09:00:33.830872Z"}}}